[[{"header":{"parameterUnit":"m.s-1","parameterCategory":1,"la1":30.2991,"la2":30.254,"lo1":-89.0895,"lo2":-89.0444,"dy":0.0017,"dx":0.0017,"nx":28,"ny":28,"refTime":"2023-10-24T03:00:00:Z","depth":0,"parameterNumber":2,"parameterNumberName":"U-component_of_WINDS"},"data":[0,0,0,0,0,0,0,0,0,0,0,0,0,0,0,0,0,0,0,0,0,0,0,0,0,0,0,0,0,0,0,0,0,0,0,0,0,0,0,0,0,0,0,0,0,0,0,0,0,0,0,0,0,0,0,0,0,0,-7.1005,-7.1006,0,-7.1132,-7.1133,-7.1135,-7.112,-7.1118,-7.1116,-7.1114,-7.1237,-7.1243,-7.1248,0,0,0,0,0,0,0,0,0,0,0,0,0,-7.0746,-7.0751,-7.1005,-7.1006,-7.1008,-7.1132,-7.1133,-7.1135,-7.112,-7.1118,-7.1115,-7.1113,-7.1236,-7.1242,-7.1248,0,0,0,0,0,0,0,0,0,0,0,0,0,-7.0864,-7.0753,-7.1004,-7.1016,-7.1018,-7.1131,-7.1133,-7.1136,-7.1121,-7.1118,-7.1115,-7.1112,-7.1234,-7.1241,-7.1249,-7.1358,0,0,-7.1273,-7.1276,0,0,0,0,0,0,0,0,-7.0857,-7.0874,-7.1012,-7.1015,-7.1018,-7.1107,-7.1088,-7.121,-7.1121,-7.1081,-7.1114,-7.111,-7.1196,-7.1207,-7.1237,-7.1363,-7.1369,-7.1273,-7.1278,-7.1281,-7.1284,0,0,0,0,0,0,0,-7.0849,-7.0868,-7.1055,-7.1014,-7.1018,-7.1013,-7.1027,-7.1111,-7.1154,-7.1085,-7.1084,-7.1099,-7.1197,-7.123,-7.124,-7.1371,-7.1273,-7.128,-7.1285,-7.1288,-7.1595,-7.1598,0,0,0,0,0,0,-7.0839,-7.0861,-7.1051,-7.1059,-7.0929,-7.102,-7.1035,-7.1081,-7.1153,-7.1161,-7.1102,-7.1098,-7.1218,-7.1231,-7.1244,-7.1376,-7.1281,-7.1289,-7.1293,-7.1591,-7.1596,-7.1599,0,0,0,0,0,0,-7.0834,-7.0856,-7.1046,-7.096,-7.0984,-7.1028,-7.108,-7.1085,-7.1118,-7.1166,-7.1173,-7.1127,-7.1216,-7.1233,-7.133,-7.138,-7.1292,-7.1299,-7.1587,-7.1593,-7.1597,-7.1641,0,0,0,0,0,0,-7.0826,-7.0854,-7.0896,-7.0961,-7.0989,-7.1131,-7.1083,-7.109,-7.1132,-7.1129,-7.1192,-7.12,-7.1215,-7.1319,-7.1338,-7.1389,-7.1305,-7.1583,-7.159,-7.1596,-7.1635,-7.1647,-7.1657,0,0,0,0,0,-7.0817,-7.0901,-7.0898,-7.0921,-7.1042,-7.1133,-7.1149,-7.1166,-7.1136,-7.1178,-7.121,-7.1198,-7.1373,-7.1329,-7.1351,-7.1405,-7.158,-7.1588,-7.1595,-7.163,-7.1645,-7.1657,0,0,0,0,0,0,-7.0837,-7.091,-7.0907,-7.1015,-7.1069,-7.1131,-7.1184,-7.1181,-7.1242,-7.1236,-7.1254,-7.1268,-7.1367,-7.1396,-7.1346,-7.1515,-7.1472,-7.1485,-7.1491,-7.1505,-7.1516,-7.1505,-7.1312,0,0,0,0,0,-7.0855,-7.0925,-7.0984,-7.1074,-7.1101,-7.1139,-7.1179,-7.1189,-7.1244,-7.1265,-7.1304,-7.1356,-7.1424,-7.1467,-7.1531,-7.1642,-7.1655,-7.169,-7.1701,-7.171,-7.1719,-7.178,-7.1796,-7.1625,-7.1625,-7.1625,0,0,-7.0891,-7.0939,-7.0981,-7.1079,-7.1122,-7.1192,-7.1157,-7.1233,-7.1285,-7.1276,-7.137,-7.1402,-7.1461,-7.1566,-7.1614,-7.1593,-7.177,-7.172,-7.1726,-7.1731,-7.179,-7.1806,-7.182,-7.1631,-7.163,-7.1629,0,0,-7.0991,-7.1036,-7.1116,-7.1161,-7.1227,-7.1253,-7.1272,-7.1337,-7.1357,-7.1454,-7.1449,-7.1512,-7.1627,-7.167,-7.1707,-7.1832,-7.1822,-7.1852,-7.1907,-7.1967,-7.198,-7.1992,-7.2035,-7.2051,-7.1862,-7.1862,-7.1862,0,-7.1026,-7.1134,-7.1157,-7.1235,-7.1278,-7.1278,-7.1359,-7.1401,-7.1484,-7.1513,-7.1491,-7.1638,-7.1678,-7.1793,-7.1824,-7.1855,-7.1877,-7.1842,-7.1977,-7.1989,-7.2001,-7.2042,-7.2058,-7.1865,-7.1865,-7.1865,-7.1864,0,-7.1173,-7.1248,-7.1305,-7.1389,-7.1439,-7.1518,-7.1552,-7.1601,-7.1608,-7.1636,-7.1735,-7.1785,-7.186,-7.1889,-7.1895,-7.2006,-7.1991,-7.1973,-7.1929,-7.202,-7.2058,-7.2074,-7.187,-7.1869,-7.1868,-7.1867,0,0,-7.1283,-7.1384,-7.1403,-7.1442,-7.1519,-7.1576,-7.1657,-7.1733,-7.1774,-7.1833,-7.1899,-7.2,-7.1985,-7.2028,-7.204,-7.2093,-7.2188,-7.2069,-7.207,-7.2087,-7.2312,-7.2322,-7.234,-7.2185,-7.2188,-7.219,-7.2306,0,-7.1389,-7.1532,-7.1558,-7.1681,-7.1751,-7.1756,-7.1826,-7.188,-7.191,-7.1973,-7.2005,-7.2076,-7.2051,-7.2077,-7.213,-7.2165,-7.2232,-7.2157,-7.2244,-7.2247,-7.2224,-7.2361,-7.2371,-7.2477,-7.2322,-7.2324,-7.2326,0,-7.153,-7.1596,-7.1728,-7.1798,-7.1828,-7.189,-7.1964,-7.2025,-7.2088,-7.2106,-7.2157,-7.2164,-7.2247,-7.2205,-7.2319,-7.2268,-7.2306,-7.2329,-7.2334,-7.2338,-7.2288,-7.2366,-7.2512,-7.2527,-7.235,-7.2349,-7.2347,0,-7.1594,-7.1717,-7.1812,-7.1845,-7.193,-7.1974,-7.2011,-7.2071,-7.2116,-7.2181,-7.2211,-7.2284,-7.2323,-7.238,-7.2407,-7.2374,-7.252,-7.2479,-7.2535,-7.2534,-7.2561,-7.2558,-7.2711,-7.2592,-7.2592,-7.2592,-7.2591,0,-7.1707,-7.1786,-7.1842,-7.19,-7.199,-7.2021,-7.2109,-7.2145,-7.22,-7.2264,-7.2274,-7.2334,-7.2369,-7.2434,-7.2457,-7.2548,-7.2566,-7.2582,-7.2586,-7.2578,-7.2576,-7.26,-7.2592,-7.2596,-7.2595,-7.2594,-7.2593,0,-7.1791,-7.1832,-7.1935,-7.201,-7.203,-7.2093,-7.2156,-7.2212,-7.2245,-7.2327,-7.2348,-7.2398,-7.2476,-7.2511,-7.2607,-7.2622,-7.2725,-7.2726,-7.2704,-7.2705,-7.2758,-7.2751,-7.2929,-7.2953,-7.2821,-7.2822,-7.2823,0,-7.1858,-7.192,-7.2003,-7.2048,-7.2087,-7.216,-7.2208,-7.2242,-7.2291,-7.237,-7.2417,-7.2497,-7.2561,-7.2686,-7.273,-7.2804,-7.2804,-7.2862,-7.2815,-7.2806,-7.2802,-7.2796,-7.2802,-7.2868,-7.287,-7.2871,-7.2872,0,-7.1972,-7.1991,-7.206,-7.2139,-7.2197,-7.2259,-7.232,-7.2356,-7.24,-7.2456,-7.2537,-7.2588,-7.2689,-7.2767,-7.2845,-7.2882,-7.2884,-7.2888,-7.2904,-7.2894,-7.2878,-7.2885,-7.2724,-7.2881,-7.288,-7.288,-7.2879,-7.2879,-7.2048,-7.2104,-7.2172,-7.225,-7.2301,-7.2359,-7.2416,-7.2459,-7.2528,-7.2613,-7.263,-7.2717,-7.2781,-7.2887,-7.2928,-7.2995,-7.2981,-7.3005,-7.3011,-7.3015,-7.3017,-7.2872,-7.301,-7.301,-7.301,-7.3009,-7.3009,0,-7.216,-7.2206,-7.2278,-7.2365,-7.2427,-7.2429,-7.2498,-7.2549,-7.2626,-7.2687,-7.2753,-7.2848,-7.2925,-7.2978,-7.3057,-7.3101,-7.3104,-7.312,-7.3115,-7.3123,-7.3026,-7.3003,-7.3116,-7.3116,-7.3116,-7.3116,-7.3116,-7.3116,-7.2225,-7.2321,-7.2348,-7.2469,-7.2514,-7.2601,-7.264,-7.2694,-7.2744,-7.285,-7.2916,-7.2951,-7.301,-7.3093,-7.3165,-7.3179,-7.3205,-7.3222,-7.3234,-7.3141,-7.313,-7.3119,-7.3097,-7.3228,-7.3229,-7.3325,-7.3326,-7.3327]},{"header":{"parameterUnit":"m.s-1","parameterCategory":1,"la1":30.2991,"la2":30.254,"lo1":-89.0895,"lo2":-89.0444,"dy":0.0017,"dx":0.0017,"nx":28,"ny":28,"refTime":"2023-10-24T03:00:00:Z","depth":0,"parameterNumber":3,"parameterNumberName":"V-component_of_WINDS"},"data":[0,0,0,0,0,0,0,0,0,0,0,0,0,0,0,0,0,0,0,0,0,0,0,0,0,0,0,0,0,0,0,0,0,0,0,0,0,0,0,0,0,0,0,0,0,0,0,0,0,0,0,0,0,0,0,0,0,0,2.4518,2.4518,0,2.4581,2.4582,2.4582,2.4592,2.4592,2.4591,2.4591,2.4654,2.4656,2.4658,0,0,0,0,0,0,0,0,0,0,0,0,0,2.4407,2.4409,2.4518,2.4519,2.4519,2.4581,2.4582,2.4583,2.4592,2.4592,2.4591,2.4591,2.4653,2.4656,2.4658,0,0,0,0,0,0,0,0,0,0,0,0,0,2.4461,2.441,2.4518,2.4532,2.4534,2.4581,2.4582,2.4583,2.4593,2.4592,2.4591,2.459,2.4652,2.4655,2.4659,2.4695,0,0,2.4669,2.467,0,0,0,0,0,0,0,0,2.4458,2.4465,2.4529,2.4531,2.4533,2.4578,2.4566,2.462,2.4593,2.457,2.4591,2.459,2.4629,2.4634,2.4648,2.4698,2.4701,2.4669,2.4671,2.4672,2.4673,0,0,0,0,0,0,0,2.4455,2.4463,2.4543,2.453,2.4532,2.4536,2.4542,2.4576,2.4603,2.4572,2.4573,2.458,2.463,2.4645,2.4649,2.4702,2.4669,2.4672,2.4674,2.4675,2.479,2.4791,0,0,0,0,0,0,2.4448,2.446,2.4541,2.4545,2.4493,2.4538,2.4546,2.4564,2.4603,2.4608,2.4581,2.4581,2.4639,2.4646,2.4652,2.47,2.4672,2.4676,2.4677,2.4789,2.479,2.4791,0,0,0,0,0,0,2.4446,2.4455,2.4538,2.4502,2.4513,2.4541,2.4562,2.4566,2.4581,2.461,2.4615,2.4591,2.4639,2.4647,2.4686,2.4702,2.4677,2.468,2.4788,2.4789,2.4791,2.4794,0,0,0,0,0,0,2.4443,2.4454,2.4468,2.4503,2.4515,2.457,2.4563,2.4568,2.4586,2.4586,2.462,2.4625,2.4639,2.4681,2.4689,2.4706,2.4683,2.4786,2.4788,2.479,2.4792,2.4795,2.4798,0,0,0,0,0,2.4439,2.4465,2.4469,2.4478,2.4533,2.4571,2.4578,2.4594,2.4588,2.4602,2.4622,2.4624,2.4699,2.4684,2.4694,2.4712,2.4785,2.4788,2.479,2.4791,2.4795,2.4798,0,0,0,0,0,0,2.443,2.447,2.4474,2.4513,2.4539,2.4573,2.4591,2.4597,2.4625,2.4624,2.4642,2.4649,2.4687,2.4704,2.4687,2.4752,2.4742,2.4746,2.4739,2.4743,2.4746,2.4741,2.4685,0,0,0,0,0,2.4433,2.4461,2.4494,2.4525,2.4538,2.4563,2.458,2.459,2.4618,2.4629,2.4651,2.4677,2.4707,2.4726,2.4755,2.4795,2.4804,2.4813,2.4816,2.4818,2.4821,2.4847,2.4852,2.4799,2.4799,2.4799,0,0,2.4439,2.4464,2.448,2.4524,2.4546,2.4575,2.4572,2.4602,2.4624,2.4633,2.4671,2.4689,2.472,2.476,2.4779,2.4775,2.4838,2.4821,2.4822,2.4825,2.485,2.4855,2.4859,2.4801,2.4801,2.48,0,0,2.4464,2.4486,2.4515,2.4538,2.4571,2.4588,2.4595,2.4629,2.4642,2.4681,2.4689,2.4716,2.4766,2.4789,2.4807,2.4846,2.485,2.4855,2.4869,2.4894,2.4898,2.4901,2.4917,2.4922,2.4858,2.4858,2.4858,0,2.4467,2.4511,2.4529,2.4561,2.4581,2.4592,2.4623,2.4644,2.4684,2.4698,2.4693,2.4759,2.4781,2.4828,2.4838,2.4852,2.4862,2.485,2.4896,2.49,2.4903,2.4919,2.4924,2.4859,2.4859,2.4858,2.4858,0,2.4514,2.4545,2.4565,2.4606,2.4628,2.4659,2.4683,2.4704,2.4713,2.4731,2.4772,2.4799,2.4835,2.4847,2.4856,2.4897,2.4894,2.4892,2.4882,2.4909,2.4923,2.4929,2.4859,2.4859,2.4859,2.4859,0,0,2.4533,2.4587,2.4594,2.4614,2.4653,2.4678,2.471,2.4747,2.4765,2.4794,2.4823,2.4867,2.4867,2.4888,2.4899,2.4921,2.4953,2.4917,2.4919,2.4924,2.5003,2.5004,2.501,2.4957,2.4958,2.4959,2.5001,0,2.4564,2.4623,2.4642,2.4691,2.4721,2.4734,2.4763,2.4791,2.481,2.4839,2.4859,2.4891,2.4887,2.49,2.4923,2.4944,2.4969,2.4942,2.4984,2.4986,2.4976,2.5018,2.5018,2.5056,2.5006,2.5007,2.5008,0,2.4607,2.4639,2.4691,2.473,2.4744,2.4769,2.4806,2.4833,2.4866,2.4878,2.4904,2.4915,2.4951,2.494,2.4991,2.4972,2.4991,2.5005,2.5007,2.5011,2.4998,2.5024,2.5068,2.5075,2.5017,2.5016,2.5015,0,2.4618,2.4673,2.4713,2.4729,2.4775,2.4793,2.4813,2.4846,2.4868,2.49,2.4915,2.4951,2.497,2.4998,2.5019,2.5009,2.5069,2.5059,2.5081,2.5081,2.5093,2.5092,2.5142,2.5104,2.5104,2.5104,2.5104,0,2.465,2.4682,2.4718,2.4743,2.478,2.4803,2.4839,2.486,2.4889,2.4919,2.4932,2.496,2.4986,2.5017,2.5034,2.5075,2.5083,2.5095,2.5099,2.5094,2.5093,2.5106,2.5105,2.5105,2.5105,2.5105,2.5104,0,2.4667,2.4693,2.4737,2.4778,2.479,2.4816,2.4851,2.4876,2.4897,2.4934,2.4944,2.4976,2.5014,2.5038,2.5086,2.5098,2.5143,2.5146,2.5132,2.5134,2.5155,2.5153,2.5216,2.5226,2.5181,2.5181,2.5182,0,2.4686,2.4712,2.4757,2.4778,2.4799,2.4833,2.4856,2.488,2.4904,2.4946,2.4967,2.5006,2.5038,2.5099,2.5127,2.5164,2.5169,2.5188,2.5174,2.5169,2.5171,2.5169,2.5173,2.519,2.519,2.5191,2.5191,0,2.4718,2.4731,2.4764,2.4803,2.4831,2.4862,2.4894,2.491,2.4941,2.4967,2.5007,2.5033,2.5083,2.5123,2.5164,2.5185,2.5194,2.5196,2.5203,2.5198,2.519,2.5196,2.5139,2.5194,2.5193,2.5193,2.5193,2.5193,2.4738,2.4762,2.4799,2.4837,2.4864,2.4894,2.492,2.4945,2.4979,2.5023,2.5036,2.5078,2.5114,2.517,2.5192,2.5226,2.5224,2.5234,2.5236,2.5239,2.524,2.5184,2.5234,2.5234,2.5233,2.5233,2.5233,0,2.4772,2.4797,2.4831,2.4876,2.4907,2.4914,2.495,2.4975,2.5013,2.5046,2.5079,2.5126,2.5166,2.5198,2.5239,2.526,2.5265,2.527,2.5269,2.5274,2.5239,2.5229,2.5265,2.5265,2.5265,2.5265,2.5265,2.5265,2.4793,2.4835,2.4853,2.491,2.4935,2.4977,2.4998,2.5027,2.5054,2.5106,2.514,2.5161,2.5195,2.5239,2.5276,2.5285,2.53,2.5304,2.5313,2.528,2.5276,2.5273,2.5264,2.5307,2.5307,2.5346,2.5346,2.5347]}]]